Regional Weather Roundup
Issued by NWS

Home | Current Version | Previous Version | Text Only | Print | Product List | Glossary Off
Versions: 1 2 3 4 5 6 7 8 9 10 11 12 13 14 15 16 17 18 19 20 21 22 23 24 25 26 27 28 29 30 31 32 33 34 35 36 37 38 39 40 41 42 43 44 45 46 47 48 49 50

000
ASUS43 KOAX 211410
RWRNE

WEATHER ROUNDUP FOR NEBRASKA
NATIONAL WEATHER SERVICE OMAHA NE
900 AM CDT SUN SEP 21 2014

NOTES: SATELLITE DATA IS BEING USED TO AUGMENT CLOUD COVER ABOVE
       12000 FEET.
       "FAIR" INDICATES FEW OR NO CLOUDS BELOW 12,000 FEET WITH NO
       SIGNIFICANT WEATHER AND/OR OBSTRUCTIONS TO VISIBILITY.

  * THESE STATIONS DO NOT REPORT WEATHER SUCH AS RAIN...SNOW OR FOG.

NEZ001>004-019>022-054>056-211500-
NEBRASKA PANHANDLE

CITY           SKY/WX    TMP DP  RH WIND       PRES   REMARKS
SCOTTSBLUFF    SUNNY     54  42  64 CALM      30.38R
ALLIANCE       CLOUDY    50  43  77 CALM      30.37R
CHADRON        SUNNY     45  40  82 SW3       30.37R
KIMBALL        MOSUNNY   55  42  63 CALM      30.39R
SIDNEY         CLOUDY    57  43  59 CALM      30.40R
$$

NEZ057>060-069>072-079>082-211500-
SOUTHWEST NEBRASKA

CITY           SKY/WX    TMP DP  RH WIND       PRES   REMARKS
NORTH PLATTE   PTSUNNY   53  46  77 CALM      30.34R
IMPERIAL       CLOUDY    56  45  66 N5        30.36R
LEXINGTON      SUNNY     52  48  86 NW3       30.32R
MCCOOK         PTSUNNY   57  45  64 CALM      30.33R
OGALLALA       MOSUNNY   56  49  77 SW3       30.36R
$$

NEZ005>010-023>029-035>040-094-211500-
NORTH CENTRAL NEBRASKA

CITY           SKY/WX    TMP DP  RH WIND       PRES   REMARKS
VALENTINE      SUNNY     51  39  63 NW6       30.32R
AINSWORTH      SUNNY     51  41  68 NW6       30.31R
BROKEN BOW     SUNNY     56  41  57 N12       30.30R
O`NEILL        SUNNY     54  45  70 NW8       30.28R
ORD            SUNNY     51  44  77 NW7       30.29R
THEDFORD       SUNNY     53  43  69 NW5       30.34R
$$

NEZ041-046>049-061>064-073>077-083>087-211500-
SOUTH CENTRAL NEBRASKA

CITY           SKY/WX    TMP DP  RH WIND       PRES   REMARKS
GRAND ISLAND   SUNNY     56  46  69 W5        30.28R
AURORA         SUNNY     56  44  65 N7        30.27R
HASTINGS       SUNNY     57  44  62 N7        30.28R
HEBRON         SUNNY     59  46  62 N8        30.25R
HOLDREGE       MOSUNNY   51  45  80 CALM      30.30R
KEARNEY *      SUNNY     54  43  66 NW7       30.30R
YORK           SUNNY     55  48  76 N6        30.26R
$$

NEZ011>018-030>034-042>045-211500-
NORTHEAST NEBRASKA

CITY           SKY/WX    TMP DP  RH WIND       PRES   REMARKS
NORFOLK        SUNNY     56  45  66 NW9       30.24R
ALBION         SUNNY     53  44  72 NW7       30.27R
BLAIR          SUNNY     57  47  68 NW7       30.20R
COLUMBUS *     SUNNY     55  46  71 N8        30.26R
FREMONT        SUNNY     56  49  76 W7        30.22R
TEKAMAH        SUNNY     60  46  59 NW14G21   30.20R
WAYNE          SUNNY     55  47  72 NW10      30.23R
$$

NEZ050>053-065>068-078-088>093-211500-
SOUTHEAST NEBRASKA

CITY           SKY/WX    TMP DP  RH WIND       PRES   REMARKS
LINCOLN        SUNNY     60  47  61 N12       30.23R
OMAHA EPPLEY   SUNNY     60  48  64 NW7       30.20R
BEATRICE       SUNNY     58  50  74 NW7       30.22R
FALLS CITY     SUNNY     60  54  80 NW8       30.18R
NEBRASKA CITY    N/A     61  41  47 N13       30.19R
PLATTSMOUTH    SUNNY     58  48  70 NW9       30.20R
$$

NEZ044-045-051>053-067-211500-
OMAHA AREA

CITY           SKY/WX    TMP DP  RH WIND       PRES   REMARKS
OMAHA EPPLEY   SUNNY     60  48  64 NW7       30.20R
BLAIR          SUNNY     57  47  68 NW7       30.20R
FREMONT        SUNNY     56  49  76 W7        30.22R
MILLARD        SUNNY     59  47  64 NW9       30.21R
OFFUTT AFB     SUNNY     59  52  78 W12       30.19R
PLATTSMOUTH    SUNNY     58  48  70 NW9       30.20R
WAHOO          FAIR      58  46  62 NW10G16   30.22R
$$



USA.gov is the U.S. government's official web portal to all federal, state and local government web resources and services.